Regional Weather Roundup
Issued by NWS

Home | Current Version | Previous Version | Text Only | Print | Product List | Glossary Off
Versions: 1 2 3 4 5 6 7 8 9 10 11 12 13 14 15 16 17 18 19 20 21 22 23 24 25 26 27 28 29 30 31 32 33 34 35 36 37 38 39 40 41 42 43 44 45 46 47 48 49 50

839
ASUS44 KMEG 231410
RWRTN
TENNESSEE HOURLY STATE WEATHER ROUNDUP
NATIONAL WEATHER SERVICE MEMPHIS TN
800 AM CST THU FEB 23 2017

TNZ002-004-019-021-049-052-054-088>092-231500-
WEST TENNESSEE

CITY           SKY/WX    TMP DP  RH WIND       PRES   REMARKS
MEMPHIS INTL   PTSUNNY   60  57  89 S8        29.81R
NWS MEMPHIS      N/A     58 N/A N/A MISG        N/A
JACKSON        SUNNY     59  57  93 S5        29.82S
UNION CITY     SUNNY    N/A N/A N/A CALM      29.80R
PARIS          MOSUNNY   57  54  88 S6        29.82S
HUNTINGDON     SUNNY     61  57  88 S7        29.82R
$$

TNZ008-025-027-028-033-062-065-066-231500-
NORTH MIDDLE TENNESSEE

CITY           SKY/WX    TMP DP  RH WIND       PRES   REMARKS
NASHVILLE      CLOUDY    58  55  90 S6        29.88R
PORTLAND       CLOUDY    59  57  94 S13       29.87R
CLARKSVILLE    CLOUDY    59  56  89 S5        29.84R
SMYRNA         CLOUDY    57  57 100 S6        29.89R
COOKEVILLE     SUNNY     61  55  82 S7        29.89R
GALLATIN       CLOUDY    54  54 100 CALM      29.90S FOG
CROSSVILLE     CLOUDY    57  54  89 S6        29.93R
$$

TNZ061-075-076-078-094-096-097-231500-
SOUTH MIDDLE TENNESSEE

CITY           SKY/WX    TMP DP  RH WIND       PRES   REMARKS
FAYETTEVILLE   SUNNY     61  57  88 SE5       29.89R
TULLAHOMA      SUNNY     59  55  88 S7        29.90R
WINCHESTER     MOSUNNY   61  55  82 SE9       29.90R
MCMINNVILLE    SUNNY     59  59 100 CALM      29.89S
COLUMBIA       PTSUNNY  N/A N/A N/A CALM      29.85S
SHELBYVILLE    SUNNY     63  57  82 SE5       29.89R
$$

TNZ017-018-042-046-047-231500-
NORTHEAST TENNESSEE

CITY           SKY/WX    TMP DP  RH WIND       PRES   REMARKS
TRI CITIES     CLOUDY    47  46  97 CALM      29.96R
ELIZABETHTON   DRIZZLE   50  48  93 NE5       29.95S
$$

TNZ012-013-036-069-073-074-231500-
CENTRAL EAST TENNESSEE

CITY           SKY/WX    TMP DP  RH WIND       PRES   REMARKS
KNOXVILLE      FOG       53  52  96 NE5       29.92R VSB 1/16
OAK RIDGE      FOG       52  51  97 CALM      29.95R VSB 1/4
GATLINBURG     SUNNY     52  50  93 CALM      29.93S
MORRISTOWN     PTSUNNY   52  52 100 CALM      29.93S FOG
JACKSBORO      FOG       52  52 100 CALM      29.97R VSB 0
$$

TNZ083-085-099-231500-
SOUTHEAST TENNESSEE

CITY           SKY/WX    TMP DP  RH WIND       PRES   REMARKS
CHATTANOOGA    PTSUNNY   55  54  96 CALM      29.92R FOG
$$

SKY/WX REPORTED AS FAIR MEANS FEW OR NO CLOUDS BELOW
12 THOUSAND FEET.





USA.gov is the U.S. government's official web portal to all federal, state and local government web resources and services.